sat.trackr.live / text

‹ back to catalog

STARLINK-38021

NORAD 69725 · 2026-147X

PAYLOAD ACTIVE UNKNOWN

§ Identity

Operator
Country
US
Launch date
2026-06-28
Launch site
AFWTR
Launch vehicle
Mass (kg)
RCS (m²)

Purposes: comms

External: N2YO · Heavens-Above · Gunter

§ Orbital elements

Epoch: 2026-09-20T03:32:33.919584Z

Period
93.91 min
Inclination
97.2850°
Eccentricity
0.0001647
Mean motion
15.33455121 rev/d
Perigee alt
464.4 km
Apogee alt
466.6 km
Semi-major
6,843.7 km
B*
3.5637e-4
RAAN
299.5701°
Arg perigee
86.7063°
Mean anomaly
273.4368°
Rev number
1,418

§ Raw data

STARLINK-380211 69725U 26147X   26263.14761481  .00011451  00000+0  35637-3 0  99982 69725  97.2850 299.5701 0001647  86.7063 273.4368 15.33455121 14180

JSON: /api/v1/satellites/69725 · /tle

For live sub-satellite position, see the globe view (requires WebGL).

§ Visibility from observer

Set your observer location to see the next 7 days of passes ≥ 10°. The values pass through the URL so the page stays shareable.

No JS? Fill the form by hand. The geolocation button needs JavaScript.